Weather History for San Angelo, TX

Change the Weather History Date:

Wednesday, December 5, 2012

  Actual Average Record
Temperature  
Mean Temperature 54 °F 48 °F  
Max Temperature 73 °F 62 °F 83 °F (1926)
Min Temperature 34 °F 35 °F 20 °F (1950)
Degree Days  
Heating Degree Days 11 17  
Month to date heating degree days 18 81  
Since 1 July heating degree days 323 481  
Cooling Degree Days 0 0  
Month to date cooling degree days 17 0  
Year to date cooling degree days 3243 2502  
Growing Degree Days 4 (Base 50)    
Moisture  
Dew Point 27 °F    
Average Humidity 45    
Maximum Humidity 76    
Minimum Humidity 14    
Precipitation  
Precipitation 0.00 in 0.03 in 0.57 in (1969)
Month to date precipitation 0.00 0.12  
Year to date precipitation 21.78 20.52  
Snow  
Snow 0.00 in 0.00 in T in (2011)
Month to date snowfall 0.0 0.0  
Since 1 July snowfall T 0.3  
Snow Depth 0.00 in    
Sea Level Pressure  
Sea Level Pressure 30.17 in    
Wind  
Wind Speed 2 mph (SSW)    
Max Wind Speed 8 mph    
Max Gust Speed 24 mph    
Visibility 10 miles    
Events      
T = Trace of Precipitation, MM = Missing Value Source: NWS Daily Summary

Daily Weather History Graph

Daily Weather History Graph

Search for Another Location

Airport:

Trip Planner

Search our weather history database for the weather conditions in past years. The results will help you decide how hot, cold, wet, or windy it might be!

Date:

Astronomy

Dec. 05, 2012 Rise Set
Actual Time 7:26 AM CST 5:38 PM CST
Civil Twilight 7:00 AM CST 6:05 PM CST
Nautical Twilight 6:30 AM CST 6:35 PM CST
Astronomical Twilight 6:00 AM CST 7:05 PM CST
Moon No Moon Rise 12:08 PM CST (12/5)
Length of Visible Light 11h 05m
Length of Day
10h 12m
Waning Gibbous, 59% of the Moon is Illuminated
Dec 5
Waning Gibbous
Dec 6
Last Quarter
Dec 13
New
Dec 19
First Quarter
Dec 28
Full

Hourly Weather History & Observations

Time (CST) Temp. Windchill Dew Point Humidity Pressure Visibility Wind Dir Wind Speed Gust Speed Precip Events Conditions
12:51 AM 42.1 °F - 30.9 °F 65% 30.30 in 10.0 mi Calm Calm - N/A   Clear
1:51 AM 41.0 °F - 30.9 °F 67% 30.30 in 10.0 mi Calm Calm - N/A   Clear
2:51 AM 37.9 °F 34.4 °F 30.0 °F 73% 30.29 in 10.0 mi WSW 4.6 mph - N/A   Clear
3:51 AM 36.0 °F - 28.9 °F 76% 30.29 in 10.0 mi Calm Calm - N/A   Clear
4:51 AM 35.1 °F 30.1 °F 28.9 °F 78% 30.28 in 10.0 mi WSW 5.8 mph - N/A   Clear
5:51 AM 35.1 °F 31.0 °F 28.9 °F 78% 30.30 in 10.0 mi WSW 4.6 mph - N/A   Clear
6:51 AM 36.0 °F 29.6 °F 28.0 °F 73% 30.32 in 10.0 mi West 8.1 mph - N/A   Clear
8:51 AM 42.1 °F - 28.9 °F 60% 30.31 in 10.0 mi Calm Calm - N/A   Clear
9:51 AM 51.1 °F - 30.0 °F 44% 30.31 in 10.0 mi Calm Calm - N/A   Clear
10:51 AM 57.9 °F - 28.9 °F 33% 30.28 in 10.0 mi Calm Calm - N/A   Clear
11:51 AM 64.0 °F - 26.1 °F 24% 30.24 in 10.0 mi Calm Calm - N/A   Clear
12:51 PM 66.9 °F - 25.0 °F 21% 30.18 in 10.0 mi Calm Calm - N/A   Clear
1:51 PM 70.0 °F - 21.9 °F 16% 30.13 in 10.0 mi Calm Calm - N/A   Clear
2:51 PM 72.0 °F - 21.0 °F 15% 30.09 in 10.0 mi Variable 3.5 mph - N/A   Clear
3:51 PM 73.0 °F - 21.0 °F 14% 30.06 in 10.0 mi SSE 5.8 mph - N/A   Clear
4:51 PM 72.0 °F - 23.0 °F 16% 30.05 in 10.0 mi SSE 5.8 mph - N/A   Clear
5:51 PM 66.9 °F - 24.1 °F 20% 30.05 in 10.0 mi SSE 4.6 mph - N/A   Clear
6:51 PM 57.0 °F - 27.0 °F 32% 30.06 in 10.0 mi SE 4.6 mph - N/A   Clear
7:51 PM 52.0 °F - 28.0 °F 40% 30.07 in 10.0 mi Calm Calm - N/A   Clear
9:51 PM 51.1 °F - 28.9 °F 43% 30.03 in 10.0 mi Calm Calm - N/A   Clear
10:51 PM 46.9 °F - 28.0 °F 48% 30.01 in 10.0 mi SSW 6.9 mph - N/A   Clear
11:51 PM 46.9 °F - 28.0 °F 48% 29.99 in 10.0 mi SSW 4.6 mph - N/A   Clear